Total_Precipitation_Accumulation
0.09 0.07 0.07 0.06 0.07 0.08 0.09 0.09 0.09 0.09 0.10 0.11 0.21 0.28 0.26 0.28 0.34 0.59 0.45 0.16 0.28 0.37 0.08 0.02 0.04 0.06 0.08 0.17 0.35 0.33 0.48 0.28 0.15 0.11 0.11 0.10 0.12 0.12 0.15 0.25 0.10 0.02 0.05 0.04 0.05 0.09 0.05 0.11 0.23 0.52 0.68 0.69 0.71 0.79
0.06 0.05 0.06 0.07 0.08 0.07 0.07 0.08 0.08 0.09 0.11 0.13 0.11 0.13 0.27 0.32 0.45 0.58 0.57 0.22 0.16 0.32 0.18 0.06 0.02 0.03 0.05 0.14 0.43 0.55 0.46 0.53 0.55 0.30 0.22 0.18 0.17 0.14 0.10 0.23 0.24 0.16 0.04 0.06 0.04 0.08 0.18 0.10 0.18 0.36 0.47 0.45 0.36 0.46
0.07 0.12 0.15 0.13 0.10 0.10 0.09 0.09 0.09 0.09 0.09 0.13 0.17 0.13 0.12 0.25 0.47 0.78 0.59 0.23 0.35 0.68 0.29 0.09 0.04 0.00 0.00 0.02 0.16 0.33 0.35 0.42 0.49 0.42 0.46 0.24 0.19 0.23 0.29 0.36 0.43 0.58 0.24 0.30 0.25 0.51 0.18 0.08 0.13 0.16 0.20 0.21 0.10 0.09
0.20 0.15 0.09 0.06 0.05 0.04 0.04 0.04 0.04 0.06 0.07 0.10 0.17 0.25 0.17 0.16 0.41 0.93 0.63 0.30 0.33 0.40 0.19 0.05 0.00 0.02 0.01 0.03 0.07 0.12 0.17 0.30 0.33 0.36 0.40 0.34 0.30 0.34 0.63 0.45 0.49 0.90 0.43 0.43 0.61 1.29 0.61 0.53 0.54 0.42 0.17 0.15 0.07 0.07
0.09 0.07 0.05 0.03 0.04 0.04 0.05 0.08 0.11 0.08 0.09 0.11 0.13 0.24 0.32 0.24 0.46 0.84 0.59 0.24 0.16 0.18 0.24 0.10 0.01 0.00 0.00 0.01 0.03 0.10 0.14 0.18 0.27 0.25 0.15 0.15 0.18 0.40 0.87 0.46 0.54 0.63 0.77 0.68 0.84 1.07 0.90 0.74 0.46 0.30 0.14 0.07 0.03 0.02
0.07 0.05 0.04 0.03 0.03 0.03 0.03 0.04 0.10 0.16 0.10 0.12 0.14 0.16 0.38 0.43 0.70 1.37 2.08 1.15 0.27 0.24 0.32 0.27 0.08 0.02 0.00 0.00 0.02 0.08 0.16 0.22 0.26 0.19 0.10 0.13 0.18 0.51 0.87 0.59 0.64 0.68 0.85 0.66 0.67 0.71 0.55 0.38 0.21 0.11 0.04 0.01 0.00 0.00
0.06 0.05 0.04 0.05 0.06 0.04 0.04 0.05 0.07 0.14 0.17 0.14 0.19 0.18 0.45 0.69 0.75 0.51 0.45 0.33 0.19 0.32 0.53 0.28 0.11 0.06 0.02 0.03 0.07 0.11 0.20 0.31 0.27 0.23 0.10 0.08 0.22 0.47 0.70 0.67 0.64 0.63 0.59 0.43 0.36 0.27 0.15 0.09 0.04 0.01 0.00 0.00 0.01 0.01
0.07 0.04 0.04 0.06 0.08 0.04 0.05 0.09 0.09 0.10 0.19 0.19 0.28 0.34 0.75 1.00 0.63 0.42 0.07 0.01 0.06 0.47 0.36 0.25 0.20 0.21 0.12 0.09 0.16 0.16 0.28 0.33 0.43 0.29 0.15 0.15 0.40 0.39 0.39 0.30 0.20 0.16 0.16 0.09 0.06 0.02 0.02 0.01 0.00 0.00 0.00 0.02 0.09 0.13
0.07 0.06 0.06 0.05 0.07 0.09 0.10 0.12 0.13 0.21 0.29 0.41 0.71 1.30 2.17 1.41 0.88 0.45 0.16 0.12 0.16 0.34 0.24 0.14 0.18 0.25 0.22 0.16 0.22 0.18 0.22 0.40 0.25 0.24 0.18 0.25 0.30 0.41 0.34 0.06 0.03 0.01 0.01 0.01 0.00 0.00 0.00 0.00 0.00 0.00 0.00 0.01 0.03 0.06
0.10 0.09 0.10 0.13 0.14 0.13 0.18 0.26 0.37 0.56 0.85 1.17 1.34 1.62 1.73 0.87 0.33 0.55 1.18 1.16 0.92 0.39 0.15 0.12 0.24 0.16 0.38 0.33 0.18 0.32 0.12 0.15 0.21 0.11 0.11 0.18 0.20 0.12 0.02 0.01 0.00 0.00 0.00 0.00 0.01 0.02 0.02 0.02 0.02 0.02 0.03 0.03 0.04 0.06
0.12 0.11 0.13 0.16 0.19 0.25 0.41 0.49 0.62 0.82 0.90 0.86 1.03 1.00 0.89 0.55 0.44 0.61 0.69 0.56 0.32 0.15 0.05 0.09 0.32 0.32 0.41 0.45 0.09 0.20 0.22 0.12 0.13 0.10 0.15 0.16 0.09 0.08 0.02 0.00 0.00 0.00 0.00 0.00 0.01 0.03 0.03 0.04 0.04 0.06 0.08 0.11 0.11 0.12
0.10 0.18 0.22 0.26 0.30 0.40 0.51 0.65 0.58 0.57 0.61 0.27 0.42 0.85 1.01 0.80 0.57 0.31 0.21 0.15 0.10 0.17 0.19 0.14 0.25 0.26 0.39 0.55 0.16 0.13 0.24 0.19 0.24 0.24 0.18 0.13 0.11 0.03 0.01 0.01 0.01 0.01 0.01 0.01 0.01 0.02 0.02 0.03 0.04 0.05 0.07 0.10 0.12 0.12
0.12 0.23 0.40 0.50 0.50 0.55 0.70 0.66 0.49 0.24 0.10 0.06 0.12 0.45 0.42 0.34 0.18 0.15 0.10 0.06 0.10 0.12 0.13 0.15 0.16 0.27 0.40 0.40 0.21 0.08 0.14 0.18 0.05 0.11 0.12 0.08 0.06 0.02 0.02 0.01 0.01 0.01 0.01 0.02 0.03 0.04 0.04 0.06 0.06 0.06 0.08 0.10 0.09 0.09
0.19 0.20 0.22 0.32 0.41 0.47 0.60 0.69 0.42 0.13 0.05 0.14 0.17 0.18 0.11 0.06 0.04 0.05 0.06 0.03 0.04 0.09 0.13 0.10 0.07 0.23 0.28 0.12 0.08 0.04 0.04 0.04 0.06 0.06 0.05 0.08 0.05 0.04 0.03 0.02 0.02 0.04 0.04 0.04 0.06 0.06 0.07 0.08 0.09 0.10 0.10 0.11 0.09 0.10
0.09 0.09 0.16 0.27 0.34 0.49 0.54 0.40 0.20 0.06 0.02 0.03 0.02 0.02 0.02 0.05 0.05 0.07 0.05 0.06 0.10 0.15 0.13 0.04 0.05 0.10 0.04 0.02 0.01 0.01 0.02 0.02 0.04 0.06 0.07 0.07 0.04 0.03 0.04 0.05 0.05 0.07 0.08 0.08 0.10 0.09 0.10 0.11 0.09 0.10 0.13 0.12 0.11 0.11
0.05 0.12 0.17 0.21 0.17 0.21 0.19 0.11 0.05 0.03 0.00 0.00 0.02 0.05 0.08 0.10 0.12 0.10 0.11 0.14 0.19 0.19 0.05 0.03 0.07 0.06 0.01 0.01 0.00 0.02 0.04 0.03 0.06 0.05 0.06 0.04 0.04 0.04 0.06 0.07 0.08 0.09 0.09 0.10 0.10 0.10 0.10 0.11 0.10 0.11 0.12 0.11 0.11 0.10
0.02 0.06 0.19 0.21 0.18 0.11 0.08 0.04 0.03 0.01 0.00 0.01 0.04 0.06 0.08 0.06 0.10 0.13 0.16 0.17 0.19 0.14 0.05 0.02 0.03 0.03 0.01 0.00 0.01 0.02 0.05 0.05 0.06 0.08 0.06 0.05 0.05 0.06 0.07 0.07 0.08 0.08 0.08 0.09 0.09 0.10 0.09 0.10 0.09 0.08 0.07 0.08 0.05 0.03
0.01 0.02 0.11 0.17 0.10 0.05 0.03 0.02 0.01 0.00 0.02 0.04 0.05 0.10 0.06 0.09 0.10 0.14 0.14 0.07 0.06 0.01 0.00 0.00 0.00 0.00 0.02 0.03 0.05 0.09 0.10 0.11 0.09 0.08 0.08 0.09 0.08 0.08 0.07 0.07 0.08 0.08 0.07 0.08 0.08 0.08 0.08 0.09 0.05 0.03 0.01 0.00 0.00 0.00
0.03 0.04 0.09 0.13 0.05 0.02 0.00 0.00 0.00 0.01 0.04 0.05 0.09 0.09 0.08 0.11 0.12 0.12 0.06 0.02 0.01 0.00 0.00 0.00 0.01 0.03 0.06 0.08 0.07 0.09 0.09 0.08 0.09 0.10 0.09 0.07 0.06 0.05 0.05 0.06 0.06 0.06 0.06 0.07 0.05 0.03 0.02 0.01 0.01 0.00 0.00 0.01 0.02 0.02
0.15 0.09 0.11 0.12 0.01 0.00 0.00 0.00 0.00 0.00 0.02 0.04 0.06 0.06 0.05 0.10 0.10 0.05 0.01 0.00 0.00 0.00 0.01 0.03 0.10 0.13 0.09 0.10 0.04 0.04 0.03 0.03 0.02 0.03 0.06 0.06 0.04 0.04 0.06 0.05 0.03 0.03 0.02 0.01 0.00 0.00 0.00 0.00 0.00 0.00 0.00 0.00 0.01 0.02
0.10 0.08 0.07 0.04 0.00 0.00 0.00 0.00 0.00 0.00 0.02 0.04 0.04 0.02 0.06 0.04 0.02 0.01 0.00 0.00 0.00 0.03 0.07 0.11 0.11 0.13 0.05 0.04 0.03 0.02 0.05 0.04 0.04 0.02 0.02 0.04 0.03 0.02 0.01 0.01 0.01 0.01 0.00 0.00 0.00 0.00 0.00 0.00 0.00 0.00 0.00 0.01 0.01 0.01
0.03 0.01 0.00 0.00 0.00 0.00 0.00 0.00 0.00 0.00 0.02 0.03 0.03 0.02 0.02 0.03 0.01 0.00 0.00 0.00 0.06 0.12 0.10 0.08 0.06 0.03 0.01 0.02 0.02 0.01 0.01 0.00 0.00 0.01 0.01 0.01 0.01 0.01 0.00 0.00 0.00 0.00 0.00 0.00 0.00 0.00 0.00 0.00 0.00 0.00 0.00 0.00 0.00 0.00
0.00 0.00 0.00 0.00 0.00 0.00 0.03 0.04 0.02 0.02 0.01 0.02 0.00 0.00 0.00 0.00 0.00 0.00 0.00 0.03 0.11 0.13 0.06 0.02 0.02 0.01 0.01 0.01 0.00 0.00 0.00 0.00 0.00 0.00 0.00 0.00 0.00 0.00 0.00 0.00 0.00 0.00 0.00 0.00 0.00 0.00 0.00 0.00 0.00 0.00 0.00 0.00 0.01 0.01
0.00 0.00 0.00 0.00 0.00 0.03 0.02 0.01 0.00 0.00 0.00 0.00 0.00 0.00 0.00 0.00 0.00 0.00 0.02 0.03 0.08 0.07 0.02 0.02 0.01 0.01 0.01 0.00 0.00 0.00 0.00 0.00 0.00 0.00 0.00 0.00 0.00 0.00 0.00 0.00 0.00 0.00 0.00 0.00 0.00 0.00 0.00 0.01 0.00 0.01 0.00 0.00 0.01 0.00
0.00 0.00 0.00 0.00 0.00 0.00 0.00 0.00 0.00 0.00 0.00 0.00 0.00 0.00 0.00 0.00 0.00 0.00 0.01 0.04 0.05 0.05 0.03 0.02 0.02 0.01 0.01 0.01 0.00 0.00 0.00 0.00 0.00 0.00 0.00 0.00 0.00 0.00 0.00 0.00 0.00 0.00 0.00 0.01 0.01 0.00 0.00 0.00 0.00 0.00 0.00 0.00 0.00 0.00
0.00 0.01 0.00 0.01 0.00 0.00 0.00 0.00 0.00 0.00 0.00 0.00 0.00 0.00 0.00 0.00 0.00 0.02 0.02 0.03 0.03 0.03 0.03 0.03 0.01 0.00 0.00 0.00 0.00 0.00 0.00 0.00 0.00 0.00 0.00 0.00 0.00 0.00 0.00 0.00 0.00 0.01 0.00 0.00 0.01 0.01 0.02 0.01 0.00 0.00 0.00 0.00 0.01 0.00
0.00 0.01 0.00 0.00 0.01 0.00 0.00 0.00 0.00 0.00 0.00 0.00 0.00 0.00 0.00 0.00 0.01 0.06 0.10 0.03 0.02 0.04 0.02 0.01 0.00 0.00 0.00 0.00 0.00 0.00 0.00 0.00 0.00 0.00 0.00 0.00 0.00 0.00 0.00 0.00 0.00 0.00 0.00 0.00 0.00 0.00 0.00 0.00 0.00 0.00 0.00 0.01 0.01 0.02
0.00 0.00 0.00 0.00 0.00 0.00 0.00 0.00 0.00 0.01 0.01 0.01 0.00 0.00 0.00 0.00 0.05 0.11 0.10 0.08 0.01 0.00 0.00 0.00 0.00 0.00 0.00 0.00 0.00 0.00 0.00 0.00 0.00 0.00 0.00 0.00 0.00 0.00 0.00 0.00 0.00 0.00 0.00 0.00 0.00 0.00 0.01 0.00 0.00 0.01 0.01 0.01 0.00 0.01
0.00 0.00 0.00 0.00 0.00 0.00 0.01 0.01 0.01 0.02 0.02 0.01 0.00 0.01 0.03 0.07 0.10 0.09 0.08 0.03 0.01 0.00 0.00 0.00 0.01 0.00 0.00 0.00 0.00 0.00 0.00 0.00 0.00 0.00 0.00 0.01 0.02 0.01 0.01 0.00 0.00 0.00 0.00 0.00 0.01 0.01 0.02 0.01 0.01 0.01 0.00 0.00 0.01 0.01
0.00 0.00 0.00 0.00 0.01 0.03 0.07 0.05 0.04 0.03 0.01 0.01 0.01 0.04 0.07 0.19 0.27 0.14 0.06 0.04 0.02 0.01 0.01 0.01 0.01 0.00 0.00 0.00 0.00 0.00 0.00 0.00 0.00 0.00 0.00 0.00 0.01 0.01 0.01 0.01 0.01 0.00 0.00 0.00 0.00 0.00 0.01 0.00 0.00 0.00 0.01 0.01 0.01 0.01
0.00 0.00 0.00 0.00 0.04 0.07 0.07 0.04 0.02 0.02 0.01 0.01 0.00 0.01 0.05 0.14 0.15 0.16 0.10 0.05 0.02 0.01 0.01 0.01 0.01 0.00 0.00 0.00 0.00 0.00 0.01 0.00 0.00 0.00 0.00 0.00 0.00 0.00 0.00 0.00 0.00 0.00 0.00 0.00 0.00 0.00 0.00 0.00 0.00 0.00 0.00 0.00 0.00 0.00
0.00 0.00 0.00 0.01 0.05 0.05 0.09 0.03 0.01 0.03 0.02 0.01 0.01 0.01 0.01 0.01 0.03 0.06 0.07 0.08 0.04 0.02 0.02 0.01 0.01 0.01 0.00 0.00 0.00 0.00 0.00 0.00 0.00 0.00 0.00 0.00 0.00 0.00 0.00 0.00 0.00 0.00 0.00 0.00 0.00 0.00 0.00 0.00 0.00 0.00 0.00 0.00 0.00 0.00
0.00 0.00 0.00 0.00 0.01 0.02 0.03 0.02 0.01 0.02 0.02 0.02 0.03 0.04 0.02 0.01 0.02 0.03 0.03 0.05 0.07 0.03 0.02 0.01 0.00 0.00 0.00 0.00 0.00 0.00 0.00 0.00 0.00 0.00 0.00 0.00 0.00 0.00 0.00 0.00 0.00 0.00 0.00 0.00 0.00 0.00 0.00 0.00 0.00 0.00 0.00 0.00 0.00 0.00